Year,Month,Day,Hour,Minute,Value (Times are PST for temperature in C)
2021,06,07,00,00,6.60
2021,06,07,00,01,6.60
2021,06,07,00,02,6.60
2021,06,07,00,03,6.60
2021,06,07,00,04,6.60
2021,06,07,00,05,6.70
2021,06,07,00,06,6.70
2021,06,07,00,07,6.70
2021,06,07,00,08,6.70
2021,06,07,00,09,6.70
2021,06,07,00,10,6.70
2021,06,07,00,11,6.70
2021,06,07,00,12,6.70
2021,06,07,00,13,6.70
2021,06,07,00,14,6.70
2021,06,07,00,15,6.70
2021,06,07,00,16,6.80
2021,06,07,00,17,6.80
2021,06,07,00,18,6.80
2021,06,07,00,19,6.80
2021,06,07,00,20,6.80
2021,06,07,00,21,6.80
2021,06,07,00,22,6.80
2021,06,07,00,23,6.80
2021,06,07,00,24,6.80
2021,06,07,00,25,6.80
2021,06,07,00,26,6.80
2021,06,07,00,27,6.80
2021,06,07,00,28,6.80
2021,06,07,00,29,6.80
2021,06,07,00,30,6.80
2021,06,07,00,31,6.80
2021,06,07,00,32,6.80
2021,06,07,00,33,6.80
2021,06,07,00,34,6.80
2021,06,07,00,35,6.80
2021,06,07,00,36,6.80
2021,06,07,00,37,6.80
2021,06,07,00,38,6.80
2021,06,07,00,39,6.80
2021,06,07,00,40,6.80
2021,06,07,00,41,6.70
2021,06,07,00,42,6.70
2021,06,07,00,43,6.70
2021,06,07,00,44,6.70
2021,06,07,00,45,6.70
2021,06,07,00,46,6.70
2021,06,07,00,47,6.60
2021,06,07,00,48,6.60
2021,06,07,00,49,6.60
2021,06,07,00,50,6.50
2021,06,07,00,51,6.50
2021,06,07,00,52,6.50
2021,06,07,00,53,6.40
2021,06,07,00,54,6.40
2021,06,07,00,55,6.40
2021,06,07,00,56,6.40
2021,06,07,00,57,6.40
2021,06,07,00,58,6.40
2021,06,07,00,59,6.40
2021,06,07,01,00,6.40
2021,06,07,01,01,6.40
2021,06,07,01,02,6.40
2021,06,07,01,03,6.40
2021,06,07,01,04,6.40
2021,06,07,01,05,6.50
2021,06,07,01,06,6.50
2021,06,07,01,07,6.40
2021,06,07,01,08,6.40
2021,06,07,01,09,6.40
2021,06,07,01,10,6.40
2021,06,07,01,11,6.30
2021,06,07,01,12,6.30
2021,06,07,01,13,6.30
2021,06,07,01,14,6.30
2021,06,07,01,15,6.20
2021,06,07,01,16,6.20
2021,06,07,01,17,6.20
2021,06,07,01,18,6.10
2021,06,07,01,19,6.10
2021,06,07,01,20,6.10
2021,06,07,01,21,6.10
2021,06,07,01,22,6.00
2021,06,07,01,23,6.00
2021,06,07,01,24,6.00
2021,06,07,01,25,5.90
2021,06,07,01,26,5.90
2021,06,07,01,27,5.90
2021,06,07,01,28,5.90
2021,06,07,01,29,5.90
2021,06,07,01,30,5.80
2021,06,07,01,31,5.80
2021,06,07,01,32,5.80
2021,06,07,01,33,5.80
2021,06,07,01,34,5.80
2021,06,07,01,35,5.80
2021,06,07,01,36,5.80
2021,06,07,01,37,5.80
2021,06,07,01,38,5.80
2021,06,07,01,39,5.80
2021,06,07,01,40,5.80
2021,06,07,01,41,5.80
2021,06,07,01,42,5.70
2021,06,07,01,43,5.70
2021,06,07,01,44,5.70
2021,06,07,01,45,5.70
2021,06,07,01,46,5.70
2021,06,07,01,47,5.60
2021,06,07,01,48,5.60
2021,06,07,01,49,5.60
2021,06,07,01,50,5.60
2021,06,07,01,51,5.60
2021,06,07,01,52,5.60
2021,06,07,01,53,5.60
2021,06,07,01,54,5.60
2021,06,07,01,55,5.60
2021,06,07,01,56,5.60
2021,06,07,01,57,5.60
2021,06,07,01,58,5.60
2021,06,07,01,59,5.60
2021,06,07,02,00,5.60
2021,06,07,02,01,5.60
2021,06,07,02,02,5.60
2021,06,07,02,03,5.60
2021,06,07,02,04,5.60
2021,06,07,02,05,5.60
2021,06,07,02,06,5.60
2021,06,07,02,07,5.60
2021,06,07,02,08,5.60
2021,06,07,02,09,5.60
2021,06,07,02,10,5.60
2021,06,07,02,11,5.60
2021,06,07,02,12,5.60
2021,06,07,02,13,5.70
2021,06,07,02,14,5.70
2021,06,07,02,15,5.80
2021,06,07,02,16,5.80
2021,06,07,02,17,5.80
2021,06,07,02,18,5.80
2021,06,07,02,19,5.80
2021,06,07,02,20,5.80
2021,06,07,02,21,5.80
2021,06,07,02,22,5.70
2021,06,07,02,23,5.70
2021,06,07,02,24,5.70
2021,06,07,02,25,5.70
2021,06,07,02,26,5.70
2021,06,07,02,27,5.70
2021,06,07,02,28,5.70
2021,06,07,02,29,5.80
2021,06,07,02,30,5.90
2021,06,07,02,31,5.90
2021,06,07,02,32,6.00
2021,06,07,02,33,6.00
2021,06,07,02,34,6.00
2021,06,07,02,35,5.90
2021,06,07,02,36,5.80
2021,06,07,02,37,5.60
2021,06,07,02,38,5.50
2021,06,07,02,39,5.40
2021,06,07,02,40,5.30
2021,06,07,02,41,5.30
2021,06,07,02,42,5.30
2021,06,07,02,43,5.30
2021,06,07,02,44,5.30
2021,06,07,02,45,5.30
2021,06,07,02,46,5.30
2021,06,07,02,47,5.30
2021,06,07,02,48,5.40
2021,06,07,02,49,5.40
2021,06,07,02,50,5.40
2021,06,07,02,51,5.40
2021,06,07,02,52,5.40
2021,06,07,02,53,5.40
2021,06,07,02,54,5.40
2021,06,07,02,55,5.40
2021,06,07,02,56,5.40
2021,06,07,02,57,5.40
2021,06,07,02,58,5.40
2021,06,07,02,59,5.40
2021,06,07,03,00,5.40
2021,06,07,03,01,5.40
2021,06,07,03,02,5.50
2021,06,07,03,03,5.50
2021,06,07,03,04,5.50
2021,06,07,03,05,5.60
2021,06,07,03,06,5.60
2021,06,07,03,07,5.60
2021,06,07,03,08,5.60
2021,06,07,03,09,5.60
2021,06,07,03,10,5.60
2021,06,07,03,11,5.50
2021,06,07,03,12,5.50
2021,06,07,03,13,5.60
2021,06,07,03,14,5.60
2021,06,07,03,15,5.60
2021,06,07,03,16,5.60
2021,06,07,03,17,5.60
2021,06,07,03,18,5.60
2021,06,07,03,19,5.70
2021,06,07,03,20,5.70
2021,06,07,03,21,5.80
2021,06,07,03,22,5.90
2021,06,07,03,23,6.00
2021,06,07,03,24,6.10
2021,06,07,03,25,6.10
2021,06,07,03,26,6.10
2021,06,07,03,27,6.10
2021,06,07,03,28,6.10
2021,06,07,03,29,6.10
2021,06,07,03,30,6.10
2021,06,07,03,31,6.10
2021,06,07,03,32,6.00
2021,06,07,03,33,5.90
2021,06,07,03,34,5.90
2021,06,07,03,35,5.80
2021,06,07,03,36,5.80
2021,06,07,03,37,5.80
2021,06,07,03,38,5.70
2021,06,07,03,39,5.70
2021,06,07,03,40,5.70
2021,06,07,03,41,5.70
2021,06,07,03,42,5.70
2021,06,07,03,43,5.60
2021,06,07,03,44,5.60
2021,06,07,03,45,5.60
2021,06,07,03,46,5.60
2021,06,07,03,47,5.50
2021,06,07,03,48,5.50
2021,06,07,03,49,5.40
2021,06,07,03,50,5.40
2021,06,07,03,51,5.40
2021,06,07,03,52,5.40
2021,06,07,03,53,5.40
2021,06,07,03,54,5.40
2021,06,07,03,55,5.40
2021,06,07,03,56,5.40
2021,06,07,03,57,5.40
2021,06,07,03,58,5.40
2021,06,07,03,59,5.50
2021,06,07,04,00,5.50
2021,06,07,04,01,5.60
2021,06,07,04,02,5.60
2021,06,07,04,03,5.60
2021,06,07,04,04,5.60
2021,06,07,04,05,5.50
2021,06,07,04,06,5.50
2021,06,07,04,07,5.40
2021,06,07,04,08,5.30
2021,06,07,04,09,5.30
2021,06,07,04,10,5.20
2021,06,07,04,11,5.20
2021,06,07,04,12,5.10
2021,06,07,04,13,5.10
2021,06,07,04,14,5.10
2021,06,07,04,15,5.10
2021,06,07,04,16,5.00
2021,06,07,04,17,5.00
2021,06,07,04,18,5.00
2021,06,07,04,19,5.00
2021,06,07,04,20,5.00
2021,06,07,04,21,5.10
2021,06,07,04,22,5.00
2021,06,07,04,23,5.00
2021,06,07,04,24,5.00
2021,06,07,04,25,5.00
2021,06,07,04,26,5.00
2021,06,07,04,27,5.00
2021,06,07,04,28,5.00
2021,06,07,04,29,4.90
2021,06,07,04,30,4.90
2021,06,07,04,31,4.90
2021,06,07,04,32,4.90
2021,06,07,04,33,4.90
2021,06,07,04,34,4.80
2021,06,07,04,35,4.80
2021,06,07,04,36,4.90
2021,06,07,04,37,4.90
2021,06,07,04,38,4.90
2021,06,07,04,39,4.90
2021,06,07,04,40,4.90
2021,06,07,04,41,4.90
2021,06,07,04,42,4.80
2021,06,07,04,43,4.80
2021,06,07,04,44,4.80
2021,06,07,04,45,4.80
2021,06,07,04,46,4.80
2021,06,07,04,47,4.80
2021,06,07,04,48,4.80
2021,06,07,04,49,4.80
2021,06,07,04,50,4.80
2021,06,07,04,51,4.80
2021,06,07,04,52,4.80
2021,06,07,04,53,4.80
2021,06,07,04,54,4.80
2021,06,07,04,55,4.80
2021,06,07,04,56,4.80
2021,06,07,04,57,4.80
2021,06,07,04,58,4.80
2021,06,07,04,59,4.80
2021,06,07,05,00,4.80
2021,06,07,05,01,4.80
2021,06,07,05,02,4.80
2021,06,07,05,03,4.80
2021,06,07,05,04,4.80
2021,06,07,05,05,4.80
2021,06,07,05,06,4.70
2021,06,07,05,07,4.70
2021,06,07,05,08,4.70
2021,06,07,05,09,4.70
2021,06,07,05,10,4.80
2021,06,07,05,11,4.80
2021,06,07,05,12,4.80
2021,06,07,05,13,4.80
2021,06,07,05,14,4.80
2021,06,07,05,15,4.90
2021,06,07,05,16,4.90
2021,06,07,05,17,4.90
2021,06,07,05,18,4.90
2021,06,07,05,19,4.90
2021,06,07,05,20,4.90
2021,06,07,05,21,4.90
2021,06,07,05,22,4.90
2021,06,07,05,23,4.90
2021,06,07,05,24,4.90
2021,06,07,05,25,4.90
2021,06,07,05,26,5.00
2021,06,07,05,27,5.00
2021,06,07,05,28,5.00
2021,06,07,05,29,5.00
2021,06,07,05,30,5.00
2021,06,07,05,31,5.00
2021,06,07,05,32,5.00
2021,06,07,05,33,4.90
2021,06,07,05,34,4.90
2021,06,07,05,35,4.90
2021,06,07,05,36,4.90
2021,06,07,05,37,4.90
2021,06,07,05,38,4.90
2021,06,07,05,39,4.90
2021,06,07,05,40,4.90
2021,06,07,05,41,4.90
2021,06,07,05,42,4.90
2021,06,07,05,43,4.90
2021,06,07,05,44,4.90
2021,06,07,05,45,4.90
2021,06,07,05,46,4.90
2021,06,07,05,47,4.90
2021,06,07,05,48,4.90
2021,06,07,05,49,4.90
2021,06,07,05,50,5.00
2021,06,07,05,51,5.00
2021,06,07,05,52,5.00
2021,06,07,05,53,5.00
2021,06,07,05,54,5.10
2021,06,07,05,55,5.10
2021,06,07,05,56,5.10
2021,06,07,05,57,5.20
2021,06,07,05,58,5.20
2021,06,07,05,59,5.20
2021,06,07,06,00,5.20
2021,06,07,06,01,5.20
2021,06,07,06,02,5.20
2021,06,07,06,03,5.20
2021,06,07,06,04,5.20
2021,06,07,06,05,5.30
2021,06,07,06,06,5.30
2021,06,07,06,07,5.30
2021,06,07,06,08,5.30
2021,06,07,06,09,5.30
2021,06,07,06,10,5.40
2021,06,07,06,11,5.40
2021,06,07,06,12,5.50
2021,06,07,06,13,5.50
2021,06,07,06,14,5.60
2021,06,07,06,15,5.70
2021,06,07,06,16,5.90
2021,06,07,06,17,6.00
2021,06,07,06,18,6.10
2021,06,07,06,19,6.20
2021,06,07,06,20,6.20
2021,06,07,06,21,6.30
2021,06,07,06,22,6.40
2021,06,07,06,23,6.50
2021,06,07,06,24,6.60
2021,06,07,06,25,6.70
2021,06,07,06,26,6.70
2021,06,07,06,27,6.70
2021,06,07,06,28,6.70
2021,06,07,06,29,6.70
2021,06,07,06,30,6.70
2021,06,07,06,31,6.70
2021,06,07,06,32,6.70
2021,06,07,06,33,6.70
2021,06,07,06,34,6.70
2021,06,07,06,35,6.70
2021,06,07,06,36,6.80
2021,06,07,06,37,6.80
2021,06,07,06,38,6.80
2021,06,07,06,39,6.90
2021,06,07,06,40,6.90
2021,06,07,06,41,7.00
2021,06,07,06,42,7.00
2021,06,07,06,43,7.00
2021,06,07,06,44,6.90
2021,06,07,06,45,6.90
2021,06,07,06,46,6.90
2021,06,07,06,47,6.90
2021,06,07,06,48,6.90
2021,06,07,06,49,6.90
2021,06,07,06,50,7.00
2021,06,07,06,51,7.00
2021,06,07,06,52,7.10
2021,06,07,06,53,7.20
2021,06,07,06,54,7.30
2021,06,07,06,55,7.30
2021,06,07,06,56,7.40
2021,06,07,06,57,7.50
2021,06,07,06,58,7.50
2021,06,07,06,59,7.60
2021,06,07,07,00,7.70
2021,06,07,07,01,7.70
2021,06,07,07,02,7.80
2021,06,07,07,03,7.90
2021,06,07,07,04,8.00
2021,06,07,07,05,8.00
2021,06,07,07,06,8.10
2021,06,07,07,07,8.10
2021,06,07,07,08,8.10
2021,06,07,07,09,8.10
2021,06,07,07,10,8.10
2021,06,07,07,11,8.10
2021,06,07,07,12,8.10
2021,06,07,07,13,8.10
2021,06,07,07,14,8.10
2021,06,07,07,15,8.20
2021,06,07,07,16,8.20
2021,06,07,07,17,8.20
2021,06,07,07,18,8.30
2021,06,07,07,19,8.30
2021,06,07,07,20,8.30
2021,06,07,07,21,8.30
2021,06,07,07,22,8.30
2021,06,07,07,23,8.40
2021,06,07,07,24,8.40
2021,06,07,07,25,8.50
2021,06,07,07,26,8.50
2021,06,07,07,27,8.60
2021,06,07,07,28,8.60
2021,06,07,07,29,8.70
2021,06,07,07,30,8.70
2021,06,07,07,31,8.80
2021,06,07,07,32,8.80
2021,06,07,07,33,8.80
2021,06,07,07,34,8.80
2021,06,07,07,35,8.80
2021,06,07,07,36,9.00
2021,06,07,07,37,9.00
2021,06,07,07,38,9.10
2021,06,07,07,39,9.10
2021,06,07,07,40,9.20
2021,06,07,07,41,9.30
2021,06,07,07,42,9.40
2021,06,07,07,43,9.50
2021,06,07,07,44,9.50
2021,06,07,07,45,9.40
2021,06,07,07,46,9.30
2021,06,07,07,47,9.30
2021,06,07,07,48,9.20
2021,06,07,07,49,9.10
2021,06,07,07,50,9.10
2021,06,07,07,51,9.10
2021,06,07,07,52,9.10
2021,06,07,07,53,9.20
2021,06,07,07,54,9.30
2021,06,07,07,55,9.30
2021,06,07,07,56,9.40
2021,06,07,07,57,9.40
2021,06,07,07,58,9.40
2021,06,07,07,59,9.40
2021,06,07,08,00,9.50
2021,06,07,08,01,9.50
2021,06,07,08,02,9.60
2021,06,07,08,03,9.60
2021,06,07,08,04,9.70
2021,06,07,08,05,9.70
2021,06,07,08,06,9.70
2021,06,07,08,07,9.70
2021,06,07,08,08,9.70
2021,06,07,08,09,9.70
2021,06,07,08,10,9.70
2021,06,07,08,11,9.80
2021,06,07,08,12,9.80
2021,06,07,08,13,9.80
2021,06,07,08,14,9.90
2021,06,07,08,15,9.90
2021,06,07,08,16,9.90
2021,06,07,08,17,9.90
2021,06,07,08,18,10.00
2021,06,07,08,19,10.10
2021,06,07,08,20,10.10
2021,06,07,08,21,10.10
2021,06,07,08,22,10.00
2021,06,07,08,23,10.10
2021,06,07,08,24,10.10
2021,06,07,08,25,10.10
2021,06,07,08,26,10.10
2021,06,07,08,27,10.20
2021,06,07,08,28,10.20
2021,06,07,08,29,10.10
2021,06,07,08,30,10.20
2021,06,07,08,31,10.20
2021,06,07,08,32,10.20
2021,06,07,08,33,10.00
2021,06,07,08,34,9.90
2021,06,07,08,35,9.90
2021,06,07,08,36,9.80
2021,06,07,08,37,9.80
2021,06,07,08,38,9.80
2021,06,07,08,39,9.70
2021,06,07,08,40,9.70
2021,06,07,08,41,9.60
2021,06,07,08,42,9.60
2021,06,07,08,43,9.60
2021,06,07,08,44,9.60
2021,06,07,08,45,9.60
2021,06,07,08,46,9.60
2021,06,07,08,47,9.60
2021,06,07,08,48,9.60
2021,06,07,08,49,9.70
2021,06,07,08,50,9.70
2021,06,07,08,51,9.80
2021,06,07,08,52,9.80
2021,06,07,08,53,9.80
2021,06,07,08,54,9.90
2021,06,07,08,55,10.00
2021,06,07,08,56,10.10
2021,06,07,08,57,10.20
2021,06,07,08,58,10.30
2021,06,07,08,59,10.30
2021,06,07,09,00,10.30
2021,06,07,09,01,10.40
2021,06,07,09,02,10.40
2021,06,07,09,03,10.40
2021,06,07,09,04,10.40
2021,06,07,09,05,10.40
2021,06,07,09,06,10.50
2021,06,07,09,07,10.60
2021,06,07,09,08,10.60
2021,06,07,09,09,10.60
2021,06,07,09,10,10.70
2021,06,07,09,11,10.70
2021,06,07,09,12,10.80
2021,06,07,09,13,10.80
2021,06,07,09,14,10.90
2021,06,07,09,15,11.00
2021,06,07,09,16,11.00
2021,06,07,09,17,11.00
2021,06,07,09,18,10.90
2021,06,07,09,19,10.90
2021,06,07,09,20,10.90
2021,06,07,09,21,11.00
2021,06,07,09,22,11.10
2021,06,07,09,23,11.20
2021,06,07,09,24,11.20
2021,06,07,09,25,11.20
2021,06,07,09,26,11.30
2021,06,07,09,27,11.30
2021,06,07,09,28,11.30
2021,06,07,09,29,11.30
2021,06,07,09,30,11.30
2021,06,07,09,31,11.40
2021,06,07,09,32,11.40
2021,06,07,09,33,11.30
2021,06,07,09,34,11.30
2021,06,07,09,35,11.30
2021,06,07,09,36,11.40
2021,06,07,09,37,11.40
2021,06,07,09,38,11.40
2021,06,07,09,39,11.50
2021,06,07,09,40,11.50
2021,06,07,09,41,11.50
2021,06,07,09,42,11.50
2021,06,07,09,43,11.50
2021,06,07,09,44,11.60
2021,06,07,09,45,11.60
2021,06,07,09,46,11.50
2021,06,07,09,47,11.40
2021,06,07,09,48,11.40
2021,06,07,09,49,11.40
2021,06,07,09,50,11.40
2021,06,07,09,51,11.40
2021,06,07,09,52,11.50
2021,06,07,09,53,11.50
2021,06,07,09,54,11.60
2021,06,07,09,55,11.50
2021,06,07,09,56,11.50
2021,06,07,09,57,11.40
2021,06,07,09,58,11.40
2021,06,07,09,59,11.40
2021,06,07,10,00,11.40
2021,06,07,10,01,11.40
2021,06,07,10,02,11.50
2021,06,07,10,03,11.50
2021,06,07,10,04,11.50
2021,06,07,10,05,11.60
2021,06,07,10,06,11.60
2021,06,07,10,07,11.70
2021,06,07,10,08,11.70
2021,06,07,10,09,11.80
2021,06,07,10,10,11.80
2021,06,07,10,11,11.70
2021,06,07,10,12,11.70
2021,06,07,10,13,11.60
2021,06,07,10,14,11.50
2021,06,07,10,15,11.40
2021,06,07,10,16,11.40
2021,06,07,10,17,11.40
2021,06,07,10,18,11.40
2021,06,07,10,19,11.50
2021,06,07,10,20,11.50
2021,06,07,10,21,11.60
2021,06,07,10,22,11.70
2021,06,07,10,23,11.80
2021,06,07,10,24,11.90
2021,06,07,10,25,12.00
2021,06,07,10,26,12.10
2021,06,07,10,27,12.20
2021,06,07,10,28,12.20
2021,06,07,10,29,12.20
2021,06,07,10,30,12.20
2021,06,07,10,31,12.20
2021,06,07,10,32,12.10
2021,06,07,10,33,12.10
2021,06,07,10,34,12.10
2021,06,07,10,35,12.10
2021,06,07,10,36,12.20
2021,06,07,10,37,12.30
2021,06,07,10,38,12.20
2021,06,07,10,39,12.20
2021,06,07,10,40,12.10
2021,06,07,10,41,12.00
2021,06,07,10,42,12.00
2021,06,07,10,43,12.10
2021,06,07,10,44,12.10
2021,06,07,10,45,12.10
2021,06,07,10,46,12.20
2021,06,07,10,47,12.30
2021,06,07,10,48,12.40
2021,06,07,10,49,12.50
2021,06,07,10,50,12.50
2021,06,07,10,51,12.50
2021,06,07,10,52,12.70
2021,06,07,10,53,12.70
2021,06,07,10,54,12.70
2021,06,07,10,55,12.70
2021,06,07,10,56,12.70
2021,06,07,10,57,12.60
2021,06,07,10,58,12.60
2021,06,07,10,59,12.60
2021,06,07,11,00,12.50
2021,06,07,11,01,12.50
2021,06,07,11,02,12.60
2021,06,07,11,03,12.60
2021,06,07,11,04,12.60
2021,06,07,11,05,12.60
2021,06,07,11,06,12.60
2021,06,07,11,07,12.60
2021,06,07,11,08,12.70
2021,06,07,11,09,12.60
2021,06,07,11,10,12.60
2021,06,07,11,11,12.60
2021,06,07,11,12,12.60
2021,06,07,11,13,12.50
2021,06,07,11,14,12.50
2021,06,07,11,15,12.50
2021,06,07,11,16,12.50
2021,06,07,11,17,12.50
2021,06,07,11,18,12.40
2021,06,07,11,19,12.40
2021,06,07,11,20,12.40
2021,06,07,11,21,12.40
2021,06,07,11,22,12.50
2021,06,07,11,23,12.60
2021,06,07,11,24,12.70
2021,06,07,11,25,12.70
2021,06,07,11,26,12.70
2021,06,07,11,27,12.80
2021,06,07,11,28,12.90
2021,06,07,11,29,12.90
2021,06,07,11,30,12.90
2021,06,07,11,31,12.80
2021,06,07,11,32,12.90
2021,06,07,11,33,12.90
2021,06,07,11,34,12.90
2021,06,07,11,35,13.00
2021,06,07,11,36,13.10
2021,06,07,11,37,13.20
2021,06,07,11,38,13.20
2021,06,07,11,39,13.10
2021,06,07,11,40,13.10
2021,06,07,11,41,13.10
2021,06,07,11,42,13.10
2021,06,07,11,43,13.10
2021,06,07,11,44,13.20
2021,06,07,11,45,13.30
2021,06,07,11,46,13.30
2021,06,07,11,47,13.40
2021,06,07,11,48,13.50
2021,06,07,11,49,13.50
2021,06,07,11,50,13.60
2021,06,07,11,51,13.50
2021,06,07,11,52,13.60
2021,06,07,11,53,13.50
2021,06,07,11,54,13.50
2021,06,07,11,55,13.60
2021,06,07,11,56,13.70
2021,06,07,11,57,13.80
2021,06,07,11,58,13.90
2021,06,07,11,59,14.00
2021,06,07,12,00,13.90
2021,06,07,12,01,13.70
2021,06,07,12,02,13.70
2021,06,07,12,03,13.60
2021,06,07,12,04,13.70
2021,06,07,12,05,13.70
2021,06,07,12,06,13.70
2021,06,07,12,07,13.70
2021,06,07,12,08,13.70
2021,06,07,12,09,13.70
2021,06,07,12,10,13.60
2021,06,07,12,11,13.40
2021,06,07,12,12,13.30
2021,06,07,12,13,13.20
2021,06,07,12,14,13.20
2021,06,07,12,15,13.20
2021,06,07,12,16,13.20
2021,06,07,12,17,13.20
2021,06,07,12,18,13.20
2021,06,07,12,19,13.20
2021,06,07,12,20,13.20
2021,06,07,12,21,13.10
2021,06,07,12,22,13.10
2021,06,07,12,23,13.00
2021,06,07,12,24,13.00
2021,06,07,12,25,13.10
2021,06,07,12,26,13.10
2021,06,07,12,27,13.20
2021,06,07,12,28,13.40
2021,06,07,12,29,13.40
2021,06,07,12,30,13.50
2021,06,07,12,31,13.50
2021,06,07,12,32,13.40
2021,06,07,12,33,13.40
2021,06,07,12,34,13.40
2021,06,07,12,35,13.40
2021,06,07,12,36,13.40
2021,06,07,12,37,13.40
2021,06,07,12,38,13.40
2021,06,07,12,39,13.40
2021,06,07,12,40,13.40
2021,06,07,12,41,13.30
2021,06,07,12,42,13.30
2021,06,07,12,43,13.20
2021,06,07,12,44,13.00
2021,06,07,12,45,12.80
2021,06,07,12,46,12.80
2021,06,07,12,47,12.80
2021,06,07,12,48,12.80
2021,06,07,12,49,12.80
2021,06,07,12,50,12.90
2021,06,07,12,51,12.90
2021,06,07,12,52,13.00
2021,06,07,12,53,13.10
2021,06,07,12,54,13.20
2021,06,07,12,55,13.20
2021,06,07,12,56,13.10
2021,06,07,12,57,13.00
2021,06,07,12,58,12.90
2021,06,07,12,59,12.80
2021,06,07,13,00,12.90
2021,06,07,13,01,13.00
2021,06,07,13,02,13.10
2021,06,07,13,03,12.90
2021,06,07,13,04,12.60
2021,06,07,13,05,12.50
2021,06,07,13,06,12.60
2021,06,07,13,07,12.70
2021,06,07,13,08,12.60
2021,06,07,13,09,12.60
2021,06,07,13,10,12.70
2021,06,07,13,11,12.80
2021,06,07,13,12,12.70
2021,06,07,13,13,12.80
2021,06,07,13,14,12.80
2021,06,07,13,15,12.80
2021,06,07,13,16,12.90
2021,06,07,13,17,13.00
2021,06,07,13,18,12.90
2021,06,07,13,19,12.70
2021,06,07,13,20,12.80
2021,06,07,13,21,12.80
2021,06,07,13,22,12.70
2021,06,07,13,23,12.60
2021,06,07,13,24,12.40
2021,06,07,13,25,12.30
2021,06,07,13,26,12.30
2021,06,07,13,27,12.40
2021,06,07,13,28,12.50
2021,06,07,13,29,12.70
2021,06,07,13,30,12.70
2021,06,07,13,31,12.70
2021,06,07,13,32,12.70
2021,06,07,13,33,12.60
2021,06,07,13,34,12.50
2021,06,07,13,35,12.40
2021,06,07,13,36,12.40
2021,06,07,13,37,12.50
2021,06,07,13,38,12.60
2021,06,07,13,39,12.70
2021,06,07,13,40,12.90
2021,06,07,13,41,12.90
2021,06,07,13,42,12.90
2021,06,07,13,43,13.00
2021,06,07,13,44,12.90
2021,06,07,13,45,12.80
2021,06,07,13,46,12.80
2021,06,07,13,47,12.80
2021,06,07,13,48,12.80
2021,06,07,13,49,13.00
2021,06,07,13,50,13.10
2021,06,07,13,51,13.20
2021,06,07,13,52,13.30
2021,06,07,13,53,13.10
2021,06,07,13,54,13.00
2021,06,07,13,55,12.80
2021,06,07,13,56,12.80
2021,06,07,13,57,12.80
2021,06,07,13,58,12.70
2021,06,07,13,59,12.60
2021,06,07,14,00,12.70
2021,06,07,14,01,12.70
2021,06,07,14,02,12.60
2021,06,07,14,03,12.70
2021,06,07,14,04,12.70
2021,06,07,14,05,12.80
2021,06,07,14,06,12.90
2021,06,07,14,07,13.00
2021,06,07,14,08,13.10
2021,06,07,14,09,13.10
2021,06,07,14,10,13.10
2021,06,07,14,11,13.10
2021,06,07,14,12,13.10
2021,06,07,14,13,13.10
2021,06,07,14,14,13.20
2021,06,07,14,15,13.20
2021,06,07,14,16,13.40
2021,06,07,14,17,13.50
2021,06,07,14,18,13.50
2021,06,07,14,19,13.60
2021,06,07,14,20,13.60
2021,06,07,14,21,13.60
2021,06,07,14,22,13.50
2021,06,07,14,23,13.40
2021,06,07,14,24,13.30
2021,06,07,14,25,13.20
2021,06,07,14,26,13.10
2021,06,07,14,27,13.00
2021,06,07,14,28,12.90
2021,06,07,14,29,12.90
2021,06,07,14,30,12.90
2021,06,07,14,31,12.80
2021,06,07,14,32,12.70
2021,06,07,14,33,12.70
2021,06,07,14,34,13.00
2021,06,07,14,35,13.00
2021,06,07,14,36,12.90
2021,06,07,14,37,13.00
2021,06,07,14,38,13.00
2021,06,07,14,39,13.10
2021,06,07,14,40,13.10
2021,06,07,14,41,13.10
2021,06,07,14,42,13.00
2021,06,07,14,43,12.90
2021,06,07,14,44,12.80
2021,06,07,14,45,12.80
2021,06,07,14,46,12.90
2021,06,07,14,47,12.90
2021,06,07,14,48,12.80
2021,06,07,14,49,12.90
2021,06,07,14,50,13.00
2021,06,07,14,51,12.90
2021,06,07,14,52,12.80
2021,06,07,14,53,12.80
2021,06,07,14,54,12.70
2021,06,07,14,55,12.70
2021,06,07,14,56,12.70
2021,06,07,14,57,12.60
2021,06,07,14,58,12.70
2021,06,07,14,59,12.70
2021,06,07,15,00,12.60
2021,06,07,15,01,12.60
2021,06,07,15,02,12.60
2021,06,07,15,03,12.60
2021,06,07,15,04,12.70
2021,06,07,15,05,12.80
2021,06,07,15,06,12.90
2021,06,07,15,07,12.90
2021,06,07,15,08,13.00
2021,06,07,15,09,13.00
2021,06,07,15,10,13.00
2021,06,07,15,11,12.90
2021,06,07,15,12,12.90
2021,06,07,15,13,12.90
2021,06,07,15,14,12.80
2021,06,07,15,15,12.80
2021,06,07,15,16,12.80
2021,06,07,15,17,12.70
2021,06,07,15,18,12.70
2021,06,07,15,19,12.60
2021,06,07,15,20,12.70
2021,06,07,15,21,12.70
2021,06,07,15,22,12.70
2021,06,07,15,23,12.70
2021,06,07,15,24,12.60
2021,06,07,15,25,12.60
2021,06,07,15,26,12.70
2021,06,07,15,27,12.60
2021,06,07,15,28,12.60
2021,06,07,15,29,12.50
2021,06,07,15,30,12.50
2021,06,07,15,31,12.40
2021,06,07,15,32,12.50
2021,06,07,15,33,12.70
2021,06,07,15,34,12.80
2021,06,07,15,35,12.90
2021,06,07,15,36,13.00
2021,06,07,15,37,13.10
2021,06,07,15,38,13.10
2021,06,07,15,39,13.00
2021,06,07,15,40,12.90
2021,06,07,15,41,12.80
2021,06,07,15,42,12.70
2021,06,07,15,43,12.70
2021,06,07,15,44,12.70
2021,06,07,15,45,12.70
2021,06,07,15,46,12.70
2021,06,07,15,47,12.50
2021,06,07,15,48,12.40
2021,06,07,15,49,12.40
2021,06,07,15,50,12.40
2021,06,07,15,51,12.40
2021,06,07,15,52,12.40
2021,06,07,15,53,12.30
2021,06,07,15,54,12.30
2021,06,07,15,55,12.40
2021,06,07,15,56,12.50
2021,06,07,15,57,12.70
2021,06,07,15,58,12.80
2021,06,07,15,59,12.90
2021,06,07,16,00,12.90
2021,06,07,16,01,12.80
2021,06,07,16,02,12.70
2021,06,07,16,03,12.70
2021,06,07,16,04,12.70
2021,06,07,16,05,12.70
2021,06,07,16,06,12.60
2021,06,07,16,07,12.60
2021,06,07,16,08,12.60
2021,06,07,16,09,12.70
2021,06,07,16,10,12.80
2021,06,07,16,11,12.90
2021,06,07,16,12,12.90
2021,06,07,16,13,12.90
2021,06,07,16,14,12.80
2021,06,07,16,15,12.70
2021,06,07,16,16,12.70
2021,06,07,16,17,12.80
2021,06,07,16,18,12.90
2021,06,07,16,19,13.00
2021,06,07,16,20,13.10
2021,06,07,16,21,13.10
2021,06,07,16,22,13.20
2021,06,07,16,23,13.30
2021,06,07,16,24,13.30
2021,06,07,16,25,13.30
2021,06,07,16,26,13.20
2021,06,07,16,27,13.00
2021,06,07,16,28,13.00
2021,06,07,16,29,12.90
2021,06,07,16,30,12.90
2021,06,07,16,31,12.90
2021,06,07,16,32,12.90
2021,06,07,16,33,13.00
2021,06,07,16,34,13.00
2021,06,07,16,35,13.00
2021,06,07,16,36,12.90
2021,06,07,16,37,12.90
2021,06,07,16,38,12.90
2021,06,07,16,39,12.80
2021,06,07,16,40,12.80
2021,06,07,16,41,12.80
2021,06,07,16,42,12.90
2021,06,07,16,43,12.90
2021,06,07,16,44,12.80
2021,06,07,16,45,12.80
2021,06,07,16,46,12.80
2021,06,07,16,47,12.80
2021,06,07,16,48,12.90
2021,06,07,16,49,12.90
2021,06,07,16,50,12.80
2021,06,07,16,51,12.70
2021,06,07,16,52,12.60
2021,06,07,16,53,12.60
2021,06,07,16,54,12.60
2021,06,07,16,55,12.60
2021,06,07,16,56,12.60
2021,06,07,16,57,12.70
2021,06,07,16,58,12.70
2021,06,07,16,59,12.70
2021,06,07,17,00,12.60
2021,06,07,17,01,12.60
2021,06,07,17,02,12.60
2021,06,07,17,03,12.60
2021,06,07,17,04,12.60
2021,06,07,17,05,12.70
2021,06,07,17,06,12.70
2021,06,07,17,07,12.70
2021,06,07,17,08,12.70
2021,06,07,17,09,12.70
2021,06,07,17,10,12.70
2021,06,07,17,11,12.80
2021,06,07,17,12,12.90
2021,06,07,17,13,12.90
2021,06,07,17,14,12.90
2021,06,07,17,15,12.80
2021,06,07,17,16,12.80
2021,06,07,17,17,12.80
2021,06,07,17,18,12.90
2021,06,07,17,19,13.00
2021,06,07,17,20,13.00
2021,06,07,17,21,12.90
2021,06,07,17,22,12.80
2021,06,07,17,23,12.70
2021,06,07,17,24,12.70
2021,06,07,17,25,12.80
2021,06,07,17,26,12.70
2021,06,07,17,27,12.70
2021,06,07,17,28,12.70
2021,06,07,17,29,12.70
2021,06,07,17,30,12.70
2021,06,07,17,31,12.80
2021,06,07,17,32,12.70
2021,06,07,17,33,12.80
2021,06,07,17,34,12.70
2021,06,07,17,35,12.70
2021,06,07,17,36,12.60
2021,06,07,17,37,12.60
2021,06,07,17,38,12.60
2021,06,07,17,39,12.60
2021,06,07,17,40,12.70
2021,06,07,17,41,12.70
2021,06,07,17,42,12.80